This demonstration page uses our WeatherBlox Daily Observations layout. Learn more.

Left ArrowRight Arrow

38.88101, -77.10428

Hourly Observations for July 9, 2021

Temp ( °F °C ) Dew Point ( °F °C ) Humidity (%) Winds ( mph kmh ) Pressure ( in mb ) Visibility ( mi km ) Precip ( " mm )
12:23 am 00:23 Cloudy 75 23.9 68 20 79 79 N 13 20 29.83 1010 10 16 N/A
12:52 am 00:52 Cloudy with Light Rain 73 22.8 68 20 84 84 NNW 17 28 29.82 1010 10 16 0.00 0.00
1:52 am 01:52 Cloudy with Light Rain 71 21.7 68 20 90 90 NNW 17 28 29.83 1010 6 10 0.05 1.27
2:19 am 02:19 Cloudy with Rain 71 21.7 68 20 90 90 NNW 13 20 29.83 1010 5 8 0.05 1.27
2:52 am 02:52 Cloudy 71 21.7 68 20 90 90 NNW 10 17 29.82 1010 10 16 0.07 1.78
3:52 am 03:52 Mostly Cloudy 72 22.2 67 19.4 84 84 WNW 9 15 29.83 1010 10 16 N/A
4:52 am 04:52 Partly Cloudy 72 22.2 67 19.4 84 84 WNW 8 13 29.85 1011 10 16 N/A
5:52 am 05:52 Mostly Sunny 71 21.7 67 19.4 87 87 WNW 3 6 29.86 1011 10 16 N/A
6:52 am 06:52 Partly Cloudy 72 22.2 68 20 87 87 SW 3 6 29.88 1012 10 16 N/A
7:52 am 07:52 Partly Cloudy 74 23.3 68 20 82 82 WNW 7 11 29.89 1012 10 16 N/A
8:52 am 08:52 Mostly Sunny 78 25.6 68 20 71 71 W 6 9 29.90 1012 10 16 N/A
9:52 am 09:52 Partly Cloudy 81 27.2 69 20.6 67 67 SSW 8 13 29.89 1012 10 16 N/A
10:52 am 10:52 Partly Cloudy 81 27.2 71 21.7 72 72 S 9 15 29.89 1012 10 16 N/A
11:52 am 11:52 Mostly Cloudy 84 28.9 71 21.7 65 65 SSW 7 11 29.89 1012 10 16 N/A
12:52 pm 12:52 Mostly Cloudy 85 29.4 71 21.7 63 63 SSE 9 15 29.89 1012 10 16 N/A
1:52 pm 13:52 Mostly Cloudy 89 31.7 69 20.6 52 52 VRB 7 11 29.88 1012 10 16 N/A
2:52 pm 14:52 Mostly Cloudy 87 30.6 72 22.2 61 61 S 13 20 29.86 1011 10 16 N/A
3:52 pm 15:52 Mostly Cloudy 90 32.2 70 21.1 52 52 S 9 15 29.84 1011 10 16 N/A
4:07 pm 16:07 Mostly Cloudy with Thunderstorms 88 31.1 71 21.7 57 57 S 13 20 29.84 1010 10 16 N/A
4:28 pm 16:28 Mostly Cloudy with Thunderstorms 80 26.7 68 20 67 67 NNW 20 31 29.85 1011 10 16 N/A
4:34 pm 16:34 Mostly Cloudy with Thunderstorms 77 25 69 20.6 77 77 N 15 24 29.87 1011 10 16 N/A
4:40 pm 16:40 Mostly Cloudy with Strong Thunderstorms 75 24 70 21 83 83 W 8 13 29.88 1012 2 3 0.03 0.76
4:45 pm 16:45 Cloudy with Strong Thunderstorms 75 23.9 70 21.1 84 84 W 8 13 29.88 1012 1 1 0.31 7.87
5:02 pm 17:02 Cloudy with Strong Thunderstorms 73 22.8 70 21.1 90 90 N 9 15 29.88 1012 1 2 0.33 8.38
5:08 pm 17:08 Cloudy with Strong Thunderstorms 73 22.8 70 21.1 90 90 NNE 7 11 29.87 1011 3 5 0.37 9.40
5:09 pm 17:09 Cloudy with Strong Thunderstorms 73 22.8 70 21.1 90 90 NNE 6 9 29.87 1011 4 6 0.37 9.40
5:19 pm 17:19 Cloudy with Thunderstorms 74 23.3 70 21.1 88 88 E 5 7 29.86 1011 10 16 0.37 9.40
5:28 pm 17:28 Mostly Cloudy with Nearby Thunderstorms 76 24.4 71 21.7 85 85 ESE 12 19 29.86 1011 10 16 0.37 9.40
5:52 pm 17:52 Mostly Cloudy with Nearby Thunderstorms 76 24.4 71 21.7 85 85 SE 10 17 29.87 1011 10 16 0.37 9.40
6:15 pm 18:15 Mostly Cloudy 77 25 71 21.7 82 82 SSE 8 13 29.86 1011 10 16 N/A
6:52 pm 18:52 Mostly Cloudy 78 25.6 71 21.7 79 79 SSE 7 11 29.87 1012 10 16 N/A
7:52 pm 19:52 Partly Cloudy 78 25.6 72 22.2 82 82 S 8 13 29.89 1012 10 16 N/A
8:52 pm 20:52 Partly Cloudy 76 24.4 71 21.7 85 85 SE 6 9 29.91 1013 10 16 N/A
9:52 pm 21:52 Partly Cloudy 75 23.9 71 21.7 88 88 S 6 9 29.92 1013 10 16 N/A
10:52 pm 22:52 Cloudy 77 25 71 21.7 82 82 N N/A 29.95 1014 10 16 N/A
11:52 pm 23:52 Cloudy 76 24.4 71 21.7 85 85 S 5 7 29.97 1015 10 16 N/A

Powered by AerisWeather